sat.trackr.live / text

‹ back to catalog

2025-234D

NORAD 66056 · 2025-234D

PAYLOAD ACTIVE UNKNOWN

§ Identity

Operator
Country
PRC
Launch date
2025-10-19
Launch site
JSC
Launch vehicle
Mass (kg)
RCS (m²)

External: N2YO · Heavens-Above · Gunter

§ Orbital elements

Epoch: 2026-09-20T22:41:55.291776Z

Period
94.74 min
Inclination
97.4152°
Eccentricity
0.0001943
Mean motion
15.19989867 rev/d
Perigee alt
504.5 km
Apogee alt
507.2 km
Semi-major
6,884.0 km
B*
3.4149e-4
RAAN
330.3853°
Arg perigee
118.2083°
Mean anomaly
241.9349°
Rev number
5,120

§ Raw data

2025-234D1 66056U 25234D   26263.94577884  .00007287  00000+0  34149-3 0  99972 66056  97.4152 330.3853 0001943 118.2083 241.9349 15.19989867 51201

JSON: /api/v1/satellites/66056 · /tle

For live sub-satellite position, see the globe view (requires WebGL).

§ Visibility from observer

Set your observer location to see the next 7 days of passes ≥ 10°. The values pass through the URL so the page stays shareable.

No JS? Fill the form by hand. The geolocation button needs JavaScript.